Orbital Elements at Epoch 2459000.5 (2020-May-31.0) TDB
Reference: JPL 15 (heliocentric ecliptic J2000)
Element | Value | Uncertainty (1-sigma) | Units |
e | .07319661836495191 | 4.2244e-08 | |
a | 2.392000006593315 | 1.5119e-08 | au |
q | 2.216913694981741 | 9.2998e-08 | au |
i | 1.272290468005629 | 3.33e-06 | deg |
node | 304.2387562479055 | 0.00022606 | deg |
peri | 188.3479713481912 | 0.00022945 | deg |
M | 96.99418476160493 | 4.1727e-05 | deg |
tp | 2458636.431262296829 (2019-Jun-01.93126230) | 0.00015485 | TDB |
period | 1351.263953558415 3.70 | 1.2811e-05 3.507e-08 | d yr |
n | .2664172303656714 | 2.5259e-09 | deg/d |
Q | 2.567086318204888 | 1.6225e-08 | au |
|
| | Orbit Determination Parameters
Additional Information
|